Location: Unspecified
(0.0000°N, 0.0000°E)
Time: 19:32:30
(UTC+01:00)

Vanguard 1 Rocket - Visible Passes

Search period start: 23 February 2018 00:00
Search period end: 05 March 2018 00:00
Orbit: 655 x 4222 km, 34.3° (Epoch: 22 February)

Date Brightness Start Highest point End Pass type
(mag) Time Alt. Az. Time Alt. Az. Time Alt. Az.
23 Feb 11.7 01:30:38 12° NE 01:30:38 12° NE 01:32:06 10° NE visible
23 Feb 11.2 03:47:55 24° N 03:56:09 28° NNE 04:11:35 10° ENE visible
23 Feb 10.2 06:09:40 10° NW 06:31:22 56° NNE 06:42:55 10° ESE visible
23 Feb 10.1 21:09:36 10° W 21:20:17 47° NNW 21:32:19 24° NNE visible
23 Feb 11.2 23:41:35 10° WNW 23:49:40 22° NNW 23:49:40 22° NNW visible
24 Feb 11.4 02:40:46 23° NNE 02:40:46 23° NNE 02:55:08 10° ENE visible
24 Feb 10.7 04:58:04 16° NNW 05:16:42 42° NNE 05:30:35 10° E visible
24 Feb 9.3 19:58:13 10° WSW 20:06:57 66° NNW 20:24:37 10° NE visible
24 Feb 10.8 22:26:57 10° WNW 22:39:15 29° NNW 22:43:03 28° N visible
25 Feb 11.7 01:33:42 14° NE 01:33:42 14° NE 01:37:01 10° NE visible
25 Feb 11.1 03:51:00 26° N 04:00:38 33° NNE 04:16:41 10° E visible
25 Feb 10.0 06:12:05 10° NW 06:34:48 70° NE 06:46:39 10° ESE visible
25 Feb 10.3 21:13:52 10° W 21:24:11 37° NNW 21:36:25 19° NNE visible
25 Feb 11.3 23:47:04 10° NW 00:26:42 - NE 23:53:45 19° NNW visible
26 Feb 11.3 02:44:01 26° NNE 02:44:01 26° NNE 03:00:44 10° ENE visible
26 Feb 10.5 05:01:19 18° NW 05:20:27 52° NNE 05:34:45 10° ESE visible
26 Feb 9.7 20:02:02 10° WSW 20:10:33 50° NNW 20:27:03 10° NE visible
26 Feb 11.0 22:32:06 10° WNW 22:43:48 24° NNW 22:47:03 23° N visible
27 Feb 11.7 01:37:07 16° NE 01:37:07 16° NE 01:42:31 10° NE visible
27 Feb 10.9 03:54:26 30° NNW 04:04:46 39° NNE 04:21:26 10° E visible
27 Feb 9.9 06:14:40 10° NW 06:38:00 86° NE 06:50:08 10° SE visible
27 Feb 10.6 21:18:29 10° WNW 21:28:21 29° NNW 21:40:18 16° NNE visible
27 Feb 11.4 23:52:27 10° NW 00:30:18 - NE 23:57:38 16° NNW visible
28 Feb 11.2 02:47:38 30° NNE 02:47:48 30° NNE 03:06:08 10° ENE visible
28 Feb 10.3 05:04:57 21° NW 05:23:55 63° NNE 05:38:36 10° ESE visible
28 Feb 10.0 20:06:08 10° W 20:14:22 37° NNW 20:29:20 10° NE visible
28 Feb 11.1 22:37:32 10° NW 22:48:38 20° N 22:50:49 20° N visible
01 Mar 11.6 01:40:54 19° NE 01:40:54 19° NE 01:48:19 10° ENE visible
01 Mar 10.7 03:58:14 35° NNW 04:08:34 47° NNE 04:25:48 10° E visible
01 Mar 9.8 06:17:28 10° NW 06:40:59 79° SW 06:53:25 10° SE visible
01 Mar 10.8 21:23:31 10° WNW 21:32:45 23° NNW 21:43:56 14° NNE visible
01 Mar 11.4 23:57:25 10° NW 00:34:14 - ENE 00:01:15 15° NNW visible
02 Mar 11.1 02:51:34 36° NNE 02:52:03 36° NNE 03:11:10 10° E visible
02 Mar 10.2 05:08:55 25° NW 05:27:09 76° NE 05:42:12 10° ESE visible
02 Mar 10.3 20:10:38 10° WNW 20:18:25 28° NNW 20:31:30 10° NNE visible
02 Mar 11.2 22:43:02 10° NW 22:53:40 18° N 22:54:17 18° N visible
03 Mar 11.5 01:44:58 22° NE 01:44:58 22° NE 01:54:03 10° ENE visible
03 Mar 10.6 04:02:19 42° NNW 04:12:03 57° NNE 04:29:49 10° ESE visible
03 Mar 10.0 06:20:34 10° WNW 06:43:50 64° SW 06:56:31 10° SE visible
03 Mar 11.0 21:28:56 10° NW 21:37:23 19° N 21:47:15 12° NNE visible
04 Mar 11.5 00:01:45 10° NNW 00:38:24 - ENE 00:04:33 14° NNW visible
04 Mar 10.9 02:55:45 43° NNE 02:55:54 43° NNE 03:15:48 10° E visible
04 Mar 10.1 05:13:06 28° NW 05:30:08 90° SSW 05:45:33 10° SE visible
04 Mar 10.6 20:15:35 10° WNW 20:22:41 21° NNW 20:33:34 10° NNE visible
04 Mar 11.3 22:48:14 10° NNW 22:57:27 17° N 22:57:27 17° N visible
